Year,Month,Day,Hour,Minute,Value (Times are PST for temperature in C)
2014,07,13,00,00,21.10
2014,07,13,00,01,21.10
2014,07,13,00,02,21.10
2014,07,13,00,03,21.10
2014,07,13,00,04,21.10
2014,07,13,00,05,21.10
2014,07,13,00,06,21.10
2014,07,13,00,07,21.10
2014,07,13,00,08,21.10
2014,07,13,00,09,21.10
2014,07,13,00,10,21.10
2014,07,13,00,11,21.10
2014,07,13,00,12,21.10
2014,07,13,00,13,21.10
2014,07,13,00,14,21.10
2014,07,13,00,15,21.10
2014,07,13,00,16,21.10
2014,07,13,00,17,21.10
2014,07,13,00,18,21.00
2014,07,13,00,19,21.00
2014,07,13,00,20,21.00
2014,07,13,00,21,21.00
2014,07,13,00,22,21.00
2014,07,13,00,23,21.00
2014,07,13,00,24,20.90
2014,07,13,00,25,20.90
2014,07,13,00,26,20.90
2014,07,13,00,27,20.90
2014,07,13,00,28,20.90
2014,07,13,00,29,20.90
2014,07,13,00,30,20.90
2014,07,13,00,31,20.90
2014,07,13,00,32,20.90
2014,07,13,00,33,20.90
2014,07,13,00,34,20.90
2014,07,13,00,35,20.90
2014,07,13,00,36,20.90
2014,07,13,00,37,20.90
2014,07,13,00,38,20.90
2014,07,13,00,39,20.90
2014,07,13,00,40,20.90
2014,07,13,00,41,20.90
2014,07,13,00,42,20.90
2014,07,13,00,43,20.90
2014,07,13,00,44,20.90
2014,07,13,00,45,20.90
2014,07,13,00,46,20.90
2014,07,13,00,47,20.90
2014,07,13,00,48,20.90
2014,07,13,00,49,20.80
2014,07,13,00,50,20.80
2014,07,13,00,51,20.80
2014,07,13,00,52,20.80
2014,07,13,00,53,20.70
2014,07,13,00,54,20.70
2014,07,13,00,55,20.60
2014,07,13,00,56,20.60
2014,07,13,00,57,20.60
2014,07,13,00,58,20.50
2014,07,13,00,59,20.50
2014,07,13,01,00,20.40
2014,07,13,01,01,20.40
2014,07,13,01,02,20.30
2014,07,13,01,03,20.30
2014,07,13,01,04,20.30
2014,07,13,01,05,20.20
2014,07,13,01,06,20.20
2014,07,13,01,07,20.20
2014,07,13,01,08,20.20
2014,07,13,01,09,20.10
2014,07,13,01,10,20.10
2014,07,13,01,11,20.10
2014,07,13,01,12,20.00
2014,07,13,01,13,20.00
2014,07,13,01,14,20.00
2014,07,13,01,15,19.90
2014,07,13,01,16,19.90
2014,07,13,01,17,19.90
2014,07,13,01,18,19.80
2014,07,13,01,19,19.80
2014,07,13,01,20,19.80
2014,07,13,01,21,19.80
2014,07,13,01,22,19.70
2014,07,13,01,23,19.70
2014,07,13,01,24,19.70
2014,07,13,01,25,19.60
2014,07,13,01,26,19.60
2014,07,13,01,27,19.60
2014,07,13,01,28,19.60
2014,07,13,01,29,19.50
2014,07,13,01,30,19.50
2014,07,13,01,31,19.50
2014,07,13,01,32,19.40
2014,07,13,01,33,19.40
2014,07,13,01,34,19.40
2014,07,13,01,35,19.40
2014,07,13,01,36,19.40
2014,07,13,01,37,19.30
2014,07,13,01,38,19.30
2014,07,13,01,39,19.30
2014,07,13,01,40,19.30
2014,07,13,01,41,19.20
2014,07,13,01,42,19.20
2014,07,13,01,43,19.20
2014,07,13,01,44,19.10
2014,07,13,01,45,19.10
2014,07,13,01,46,19.10
2014,07,13,01,47,19.00
2014,07,13,01,48,19.00
2014,07,13,01,49,18.90
2014,07,13,01,50,18.90
2014,07,13,01,51,18.90
2014,07,13,01,52,18.80
2014,07,13,01,53,18.80
2014,07,13,01,54,18.80
2014,07,13,01,55,18.80
2014,07,13,01,56,18.80
2014,07,13,01,57,18.70
2014,07,13,01,58,18.70
2014,07,13,01,59,18.70
2014,07,13,02,00,18.70
2014,07,13,02,01,18.70
2014,07,13,02,02,18.70
2014,07,13,02,03,18.70
2014,07,13,02,04,18.70
2014,07,13,02,05,18.80
2014,07,13,02,06,18.80
2014,07,13,02,07,18.80
2014,07,13,02,08,18.80
2014,07,13,02,09,18.80
2014,07,13,02,10,18.80
2014,07,13,02,11,18.80
2014,07,13,02,12,18.80
2014,07,13,02,13,18.80
2014,07,13,02,14,18.80
2014,07,13,02,15,18.80
2014,07,13,02,16,18.80
2014,07,13,02,17,18.80
2014,07,13,02,18,18.80
2014,07,13,02,19,18.80
2014,07,13,02,20,18.80
2014,07,13,02,21,18.80
2014,07,13,02,22,18.80
2014,07,13,02,23,18.80
2014,07,13,02,24,18.80
2014,07,13,02,25,18.80
2014,07,13,02,26,18.80
2014,07,13,02,27,18.80
2014,07,13,02,28,18.80
2014,07,13,02,29,18.80
2014,07,13,02,30,18.80
2014,07,13,02,31,18.80
2014,07,13,02,32,18.80
2014,07,13,02,33,18.80
2014,07,13,02,34,18.80
2014,07,13,02,35,18.80
2014,07,13,02,36,18.80
2014,07,13,02,37,18.80
2014,07,13,02,38,18.80
2014,07,13,02,39,18.80
2014,07,13,02,40,18.80
2014,07,13,02,41,18.80
2014,07,13,02,42,18.80
2014,07,13,02,43,18.80
2014,07,13,02,44,18.80
2014,07,13,02,45,18.80
2014,07,13,02,46,18.80
2014,07,13,02,47,18.80
2014,07,13,02,48,18.80
2014,07,13,02,49,18.80
2014,07,13,02,50,18.70
2014,07,13,02,51,18.70
2014,07,13,02,52,18.70
2014,07,13,02,53,18.70
2014,07,13,02,54,18.70
2014,07,13,02,55,18.70
2014,07,13,02,56,18.70
2014,07,13,02,57,18.60
2014,07,13,02,58,18.60
2014,07,13,02,59,18.60
2014,07,13,03,00,18.60
2014,07,13,03,01,18.60
2014,07,13,03,02,18.50
2014,07,13,03,03,18.50
2014,07,13,03,04,18.50
2014,07,13,03,05,18.50
2014,07,13,03,06,18.40
2014,07,13,03,07,18.40
2014,07,13,03,08,18.40
2014,07,13,03,09,18.40
2014,07,13,03,10,18.30
2014,07,13,03,11,18.30
2014,07,13,03,12,18.30
2014,07,13,03,13,18.30
2014,07,13,03,14,18.30
2014,07,13,03,15,18.30
2014,07,13,03,16,18.30
2014,07,13,03,17,18.30
2014,07,13,03,18,18.30
2014,07,13,03,19,18.20
2014,07,13,03,20,18.30
2014,07,13,03,21,18.30
2014,07,13,03,22,18.30
2014,07,13,03,23,18.30
2014,07,13,03,24,18.30
2014,07,13,03,25,18.30
2014,07,13,03,26,18.30
2014,07,13,03,27,18.30
2014,07,13,03,28,18.30
2014,07,13,03,29,18.30
2014,07,13,03,30,18.20
2014,07,13,03,31,18.20
2014,07,13,03,32,18.20
2014,07,13,03,33,18.20
2014,07,13,03,34,18.20
2014,07,13,03,35,18.20
2014,07,13,03,36,18.20
2014,07,13,03,37,18.20
2014,07,13,03,38,18.20
2014,07,13,03,39,18.10
2014,07,13,03,40,18.10
2014,07,13,03,41,18.10
2014,07,13,03,42,18.10
2014,07,13,03,43,18.10
2014,07,13,03,44,18.10
2014,07,13,03,45,18.10
2014,07,13,03,46,18.10
2014,07,13,03,47,18.10
2014,07,13,03,48,18.00
2014,07,13,03,49,18.00
2014,07,13,03,50,18.00
2014,07,13,03,51,18.00
2014,07,13,03,52,18.10
2014,07,13,03,53,18.10
2014,07,13,03,54,18.10
2014,07,13,03,55,18.10
2014,07,13,03,56,18.00
2014,07,13,03,57,18.00
2014,07,13,03,58,18.00
2014,07,13,03,59,18.00
2014,07,13,04,00,18.00
2014,07,13,04,01,18.00
2014,07,13,04,02,18.00
2014,07,13,04,03,17.90
2014,07,13,04,04,17.90
2014,07,13,04,05,17.90
2014,07,13,04,06,17.90
2014,07,13,04,07,17.90
2014,07,13,04,08,17.90
2014,07,13,04,09,17.80
2014,07,13,04,10,17.80
2014,07,13,04,11,17.80
2014,07,13,04,12,17.70
2014,07,13,04,13,17.70
2014,07,13,04,14,17.70
2014,07,13,04,15,17.60
2014,07,13,04,16,17.60
2014,07,13,04,17,17.50
2014,07,13,04,18,17.50
2014,07,13,04,19,17.40
2014,07,13,04,20,17.40
2014,07,13,04,21,17.40
2014,07,13,04,22,17.30
2014,07,13,04,23,17.30
2014,07,13,04,24,17.30
2014,07,13,04,25,17.30
2014,07,13,04,26,17.30
2014,07,13,04,27,17.30
2014,07,13,04,28,17.30
2014,07,13,04,29,17.20
2014,07,13,04,30,17.20
2014,07,13,04,31,17.20
2014,07,13,04,32,17.20
2014,07,13,04,33,17.20
2014,07,13,04,34,17.10
2014,07,13,04,35,17.10
2014,07,13,04,36,17.10
2014,07,13,04,37,17.10
2014,07,13,04,38,17.10
2014,07,13,04,39,17.10
2014,07,13,04,40,17.10
2014,07,13,04,41,17.10
2014,07,13,04,42,17.10
2014,07,13,04,43,17.10
2014,07,13,04,44,17.10
2014,07,13,04,45,17.20
2014,07,13,04,46,17.20
2014,07,13,04,47,17.20
2014,07,13,04,48,17.20
2014,07,13,04,49,17.20
2014,07,13,04,50,17.20
2014,07,13,04,51,17.20
2014,07,13,04,52,17.20
2014,07,13,04,53,17.20
2014,07,13,04,54,17.20
2014,07,13,04,55,17.10
2014,07,13,04,56,17.10
2014,07,13,04,57,17.10
2014,07,13,04,58,17.10
2014,07,13,04,59,17.10
2014,07,13,05,00,17.00
2014,07,13,05,01,17.00
2014,07,13,05,02,17.00
2014,07,13,05,03,16.90
2014,07,13,05,04,16.90
2014,07,13,05,05,16.90
2014,07,13,05,06,16.90
2014,07,13,05,07,16.80
2014,07,13,05,08,16.80
2014,07,13,05,09,16.80
2014,07,13,05,10,16.80
2014,07,13,05,11,16.80
2014,07,13,05,12,16.80
2014,07,13,05,13,16.80
2014,07,13,05,14,16.80
2014,07,13,05,15,16.80
2014,07,13,05,16,16.70
2014,07,13,05,17,16.70
2014,07,13,05,18,16.70
2014,07,13,05,19,16.70
2014,07,13,05,20,16.70
2014,07,13,05,21,16.70
2014,07,13,05,22,16.70
2014,07,13,05,23,16.70
2014,07,13,05,24,16.70
2014,07,13,05,25,16.70
2014,07,13,05,26,16.70
2014,07,13,05,27,16.70
2014,07,13,05,28,16.70
2014,07,13,05,29,16.70
2014,07,13,05,30,16.70
2014,07,13,05,31,16.70
2014,07,13,05,32,16.70
2014,07,13,05,33,16.70
2014,07,13,05,34,16.70
2014,07,13,05,35,16.70
2014,07,13,05,36,16.70
2014,07,13,05,37,16.70
2014,07,13,05,38,16.70
2014,07,13,05,39,16.70
2014,07,13,05,40,16.60
2014,07,13,05,41,16.60
2014,07,13,05,42,16.60
2014,07,13,05,43,16.60
2014,07,13,05,44,16.60
2014,07,13,05,45,16.60
2014,07,13,05,46,16.60
2014,07,13,05,47,16.60
2014,07,13,05,48,16.50
2014,07,13,05,49,16.50
2014,07,13,05,50,16.50
2014,07,13,05,51,16.50
2014,07,13,05,52,16.50
2014,07,13,05,53,16.40
2014,07,13,05,54,16.40
2014,07,13,05,55,16.40
2014,07,13,05,56,16.40
2014,07,13,05,57,16.40
2014,07,13,05,58,16.40
2014,07,13,05,59,16.40
2014,07,13,06,00,16.40
2014,07,13,06,01,16.40
2014,07,13,06,02,16.40
2014,07,13,06,03,16.40
2014,07,13,06,04,16.40
2014,07,13,06,05,16.40
2014,07,13,06,06,16.40
2014,07,13,06,07,16.40
2014,07,13,06,08,16.40
2014,07,13,06,09,16.40
2014,07,13,06,10,16.40
2014,07,13,06,11,16.40
2014,07,13,06,12,16.40
2014,07,13,06,13,16.50
2014,07,13,06,14,16.50
2014,07,13,06,15,16.50
2014,07,13,06,16,16.50
2014,07,13,06,17,16.50
2014,07,13,06,18,16.50
2014,07,13,06,19,16.50
2014,07,13,06,20,16.50
2014,07,13,06,21,16.50
2014,07,13,06,22,16.50
2014,07,13,06,23,16.50
2014,07,13,06,24,16.60
2014,07,13,06,25,16.60
2014,07,13,06,26,16.60
2014,07,13,06,27,16.60
2014,07,13,06,28,16.60
2014,07,13,06,29,16.60
2014,07,13,06,30,16.60
2014,07,13,06,31,16.60
2014,07,13,06,32,16.70
2014,07,13,06,33,16.70
2014,07,13,06,34,16.70
2014,07,13,06,35,16.70
2014,07,13,06,36,16.70
2014,07,13,06,37,16.70
2014,07,13,06,38,16.70
2014,07,13,06,39,16.70
2014,07,13,06,40,16.80
2014,07,13,06,41,16.80
2014,07,13,06,42,16.80
2014,07,13,06,43,16.80
2014,07,13,06,44,16.80
2014,07,13,06,45,16.80
2014,07,13,06,46,16.80
2014,07,13,06,47,16.90
2014,07,13,06,48,16.90
2014,07,13,06,49,16.90
2014,07,13,06,50,16.90
2014,07,13,06,51,16.90
2014,07,13,06,52,17.00
2014,07,13,06,53,17.00
2014,07,13,06,54,17.00
2014,07,13,06,55,17.10
2014,07,13,06,56,17.10
2014,07,13,06,57,17.10
2014,07,13,06,58,17.20
2014,07,13,06,59,17.20
2014,07,13,07,00,17.20
2014,07,13,07,01,17.20
2014,07,13,07,02,17.30
2014,07,13,07,03,17.30
2014,07,13,07,04,17.30
2014,07,13,07,05,17.30
2014,07,13,07,06,17.30
2014,07,13,07,07,17.40
2014,07,13,07,08,17.40
2014,07,13,07,09,17.40
2014,07,13,07,10,17.40
2014,07,13,07,11,17.50
2014,07,13,07,12,17.50
2014,07,13,07,13,17.50
2014,07,13,07,14,17.60
2014,07,13,07,15,17.60
2014,07,13,07,16,17.60
2014,07,13,07,17,17.60
2014,07,13,07,18,17.60
2014,07,13,07,19,17.70
2014,07,13,07,20,17.70
2014,07,13,07,21,17.70
2014,07,13,07,22,17.70
2014,07,13,07,23,17.70
2014,07,13,07,24,17.70
2014,07,13,07,25,17.80
2014,07,13,07,26,17.80
2014,07,13,07,27,17.80
2014,07,13,07,28,17.90
2014,07,13,07,29,17.90
2014,07,13,07,30,17.90
2014,07,13,07,31,17.90
2014,07,13,07,32,17.90
2014,07,13,07,33,18.00
2014,07,13,07,34,18.00
2014,07,13,07,35,18.10
2014,07,13,07,36,18.10
2014,07,13,07,37,18.10
2014,07,13,07,38,18.10
2014,07,13,07,39,18.10
2014,07,13,07,40,18.20
2014,07,13,07,41,18.20
2014,07,13,07,42,18.20
2014,07,13,07,43,18.20
2014,07,13,07,44,18.30
2014,07,13,07,45,18.30
2014,07,13,07,46,18.30
2014,07,13,07,47,18.40
2014,07,13,07,48,18.40
2014,07,13,07,49,18.50
2014,07,13,07,50,18.50
2014,07,13,07,51,18.60
2014,07,13,07,52,18.70
2014,07,13,07,53,18.70
2014,07,13,07,54,18.80
2014,07,13,07,55,18.80
2014,07,13,07,56,18.90
2014,07,13,07,57,18.90
2014,07,13,07,58,19.00
2014,07,13,07,59,19.00
2014,07,13,08,00,19.10
2014,07,13,08,01,19.10
2014,07,13,08,02,19.20
2014,07,13,08,03,19.20
2014,07,13,08,04,19.30
2014,07,13,08,05,19.30
2014,07,13,08,06,19.40
2014,07,13,08,07,19.40
2014,07,13,08,08,19.50
2014,07,13,08,09,19.50
2014,07,13,08,10,19.60
2014,07,13,08,11,19.60
2014,07,13,08,12,19.70
2014,07,13,08,13,19.70
2014,07,13,08,14,19.70
2014,07,13,08,15,19.80
2014,07,13,08,16,19.80
2014,07,13,08,17,19.80
2014,07,13,08,18,19.90
2014,07,13,08,19,19.90
2014,07,13,08,20,20.00
2014,07,13,08,21,20.10
2014,07,13,08,22,20.20
2014,07,13,08,23,20.30
2014,07,13,08,24,20.40
2014,07,13,08,25,20.50
2014,07,13,08,26,20.60
2014,07,13,08,27,20.80
2014,07,13,08,28,20.90
2014,07,13,08,29,21.10
2014,07,13,08,30,21.20
2014,07,13,08,31,21.30
2014,07,13,08,32,21.40
2014,07,13,08,33,21.50
2014,07,13,08,34,21.60
2014,07,13,08,35,21.70
2014,07,13,08,36,21.80
2014,07,13,08,37,21.90
2014,07,13,08,38,22.00
2014,07,13,08,39,22.10
2014,07,13,08,40,22.20
2014,07,13,08,41,22.20
2014,07,13,08,42,22.30
2014,07,13,08,43,22.40
2014,07,13,08,44,22.50
2014,07,13,08,45,22.60
2014,07,13,08,46,22.60
2014,07,13,08,47,22.70
2014,07,13,08,48,22.80
2014,07,13,08,49,22.80
2014,07,13,08,50,22.90
2014,07,13,08,51,23.00
2014,07,13,08,52,23.00
2014,07,13,08,53,23.10
2014,07,13,08,54,23.20
2014,07,13,08,55,23.20
2014,07,13,08,56,23.30
2014,07,13,08,57,23.40
2014,07,13,08,58,23.40
2014,07,13,08,59,23.50
2014,07,13,09,00,23.60
2014,07,13,09,01,23.60
2014,07,13,09,02,23.60
2014,07,13,09,03,23.70
2014,07,13,09,04,23.70
2014,07,13,09,05,23.80
2014,07,13,09,06,23.80
2014,07,13,09,07,23.90
2014,07,13,09,08,23.90
2014,07,13,09,09,23.90
2014,07,13,09,10,24.00
2014,07,13,09,11,24.00
2014,07,13,09,12,24.10
2014,07,13,09,13,24.10
2014,07,13,09,14,24.20
2014,07,13,09,15,24.20
2014,07,13,09,16,24.20
2014,07,13,09,17,24.30
2014,07,13,09,18,24.30
2014,07,13,09,19,24.40
2014,07,13,09,20,24.40
2014,07,13,09,21,24.40
2014,07,13,09,22,24.40
2014,07,13,09,23,24.50
2014,07,13,09,24,24.50
2014,07,13,09,25,24.60
2014,07,13,09,26,24.70
2014,07,13,09,27,24.70
2014,07,13,09,28,24.70
2014,07,13,09,29,24.80
2014,07,13,09,30,24.80
2014,07,13,09,31,24.80
2014,07,13,09,32,24.90
2014,07,13,09,33,24.90
2014,07,13,09,34,25.00
2014,07,13,09,35,25.10
2014,07,13,09,36,25.10
2014,07,13,09,37,25.20
2014,07,13,09,38,25.20
2014,07,13,09,39,25.30
2014,07,13,09,40,25.30
2014,07,13,09,41,25.40
2014,07,13,09,42,25.50
2014,07,13,09,43,25.50
2014,07,13,09,44,25.60
2014,07,13,09,45,25.60
2014,07,13,09,46,25.70
2014,07,13,09,47,25.70
2014,07,13,09,48,25.80
2014,07,13,09,49,25.80
2014,07,13,09,50,25.90
2014,07,13,09,51,25.90
2014,07,13,09,52,25.90
2014,07,13,09,53,26.00
2014,07,13,09,54,26.10
2014,07,13,09,55,26.20
2014,07,13,09,56,26.20
2014,07,13,09,57,26.20
2014,07,13,09,58,26.20
2014,07,13,09,59,26.20
2014,07,13,10,00,26.20
2014,07,13,10,01,26.10
2014,07,13,10,02,26.10
2014,07,13,10,03,26.10
2014,07,13,10,04,26.10
2014,07,13,10,05,26.10
2014,07,13,10,06,26.00
2014,07,13,10,07,26.00
2014,07,13,10,08,26.00
2014,07,13,10,09,26.00
2014,07,13,10,10,26.00
2014,07,13,10,11,26.10
2014,07,13,10,12,26.10
2014,07,13,10,13,26.10
2014,07,13,10,14,26.20
2014,07,13,10,15,26.20
2014,07,13,10,16,26.30
2014,07,13,10,17,26.30
2014,07,13,10,18,26.40
2014,07,13,10,19,26.40
2014,07,13,10,20,26.50
2014,07,13,10,21,26.60
2014,07,13,10,22,26.60
2014,07,13,10,23,26.70
2014,07,13,10,24,26.70
2014,07,13,10,25,26.80
2014,07,13,10,26,26.80
2014,07,13,10,27,26.80
2014,07,13,10,28,26.90
2014,07,13,10,29,26.90
2014,07,13,10,30,26.80
2014,07,13,10,31,26.80
2014,07,13,10,32,26.80
2014,07,13,10,33,26.80
2014,07,13,10,34,26.70
2014,07,13,10,35,26.70
2014,07,13,10,36,26.70
2014,07,13,10,37,26.70
2014,07,13,10,38,26.70
2014,07,13,10,39,26.70
2014,07,13,10,40,26.80
2014,07,13,10,41,26.80
2014,07,13,10,42,26.90
2014,07,13,10,43,26.90
2014,07,13,10,44,27.00
2014,07,13,10,45,27.00
2014,07,13,10,46,27.10
2014,07,13,10,47,27.10
2014,07,13,10,48,27.20
2014,07,13,10,49,27.20
2014,07,13,10,50,27.30
2014,07,13,10,51,27.40
2014,07,13,10,52,27.50
2014,07,13,10,53,27.70
2014,07,13,10,54,27.80
2014,07,13,10,55,27.90
2014,07,13,10,56,28.00
2014,07,13,10,57,28.10
2014,07,13,10,58,28.20
2014,07,13,10,59,28.30
2014,07,13,11,00,28.40
2014,07,13,11,01,28.40
2014,07,13,11,02,28.50
2014,07,13,11,03,28.60
2014,07,13,11,04,28.70
2014,07,13,11,05,28.80
2014,07,13,11,06,28.80
2014,07,13,11,07,28.90
2014,07,13,11,08,29.00
2014,07,13,11,09,29.00
2014,07,13,11,10,29.10
2014,07,13,11,11,29.10
2014,07,13,11,12,29.10
2014,07,13,11,13,29.10
2014,07,13,11,14,29.00
2014,07,13,11,15,28.90
2014,07,13,11,16,28.90
2014,07,13,11,17,28.80
2014,07,13,11,18,28.80
2014,07,13,11,19,28.80
2014,07,13,11,20,28.80
2014,07,13,11,21,28.80
2014,07,13,11,22,28.90
2014,07,13,11,23,29.00
2014,07,13,11,24,29.00
2014,07,13,11,25,29.20
2014,07,13,11,26,29.20
2014,07,13,11,27,29.30
2014,07,13,11,28,29.30
2014,07,13,11,29,29.40
2014,07,13,11,30,29.50
2014,07,13,11,31,29.50
2014,07,13,11,32,29.60
2014,07,13,11,33,29.70
2014,07,13,11,34,29.80
2014,07,13,11,35,29.90
2014,07,13,11,36,29.90
2014,07,13,11,37,29.90
2014,07,13,11,38,30.00
2014,07,13,11,39,30.10
2014,07,13,11,40,30.10
2014,07,13,11,41,30.10
2014,07,13,11,42,30.20
2014,07,13,11,43,30.20
2014,07,13,11,44,30.20
2014,07,13,11,45,30.30
2014,07,13,11,46,30.30
2014,07,13,11,47,30.40
2014,07,13,11,48,30.40
2014,07,13,11,49,30.40
2014,07,13,11,50,30.40
2014,07,13,11,51,30.30
2014,07,13,11,52,30.30
2014,07,13,11,53,30.20
2014,07,13,11,54,30.20
2014,07,13,11,55,30.10
2014,07,13,11,56,30.10
2014,07,13,11,57,30.00
2014,07,13,11,58,30.00
2014,07,13,11,59,30.00
2014,07,13,12,00,29.90
2014,07,13,12,01,29.90
2014,07,13,12,02,29.90
2014,07,13,12,03,29.80
2014,07,13,12,04,29.80
2014,07,13,12,05,29.70
2014,07,13,12,06,29.70
2014,07,13,12,07,29.60
2014,07,13,12,08,29.60
2014,07,13,12,09,29.60
2014,07,13,12,10,29.50
2014,07,13,12,11,29.50
2014,07,13,12,12,29.50
2014,07,13,12,13,29.50
2014,07,13,12,14,29.40
2014,07,13,12,15,29.40
2014,07,13,12,16,29.40
2014,07,13,12,17,29.30
2014,07,13,12,18,29.30
2014,07,13,12,19,29.30
2014,07,13,12,20,29.30
2014,07,13,12,21,29.20
2014,07,13,12,22,29.20
2014,07,13,12,23,29.20
2014,07,13,12,24,29.10
2014,07,13,12,25,29.10
2014,07,13,12,26,29.00
2014,07,13,12,27,29.00
2014,07,13,12,28,29.00
2014,07,13,12,29,28.90
2014,07,13,12,30,28.90
2014,07,13,12,31,28.90
2014,07,13,12,32,28.90
2014,07,13,12,33,28.90
2014,07,13,12,34,28.90
2014,07,13,12,35,28.90
2014,07,13,12,36,28.90
2014,07,13,12,37,28.90
2014,07,13,12,38,28.90
2014,07,13,12,39,28.90
2014,07,13,12,40,28.80
2014,07,13,12,41,28.80
2014,07,13,12,42,28.80
2014,07,13,12,43,28.70
2014,07,13,12,44,28.70
2014,07,13,12,45,28.70
2014,07,13,12,46,28.80
2014,07,13,12,47,28.80
2014,07,13,12,48,28.90
2014,07,13,12,49,29.00
2014,07,13,12,50,29.10
2014,07,13,12,51,29.20
2014,07,13,12,52,29.30
2014,07,13,12,53,29.40
2014,07,13,12,54,29.50
2014,07,13,12,55,29.60
2014,07,13,12,56,29.60
2014,07,13,12,57,29.60
2014,07,13,12,58,29.70
2014,07,13,12,59,29.70
2014,07,13,13,00,29.70
2014,07,13,13,01,29.80
2014,07,13,13,02,29.80
2014,07,13,13,03,29.90
2014,07,13,13,04,30.00
2014,07,13,13,05,30.20
2014,07,13,13,06,30.30
2014,07,13,13,07,30.40
2014,07,13,13,08,30.40
2014,07,13,13,09,30.50
2014,07,13,13,10,30.60
2014,07,13,13,11,30.60
2014,07,13,13,12,30.50
2014,07,13,13,13,30.50
2014,07,13,13,14,30.50
2014,07,13,13,15,30.50
2014,07,13,13,16,30.50
2014,07,13,13,17,30.50
2014,07,13,13,18,30.50
2014,07,13,13,19,30.60
2014,07,13,13,20,30.60
2014,07,13,13,21,30.70
2014,07,13,13,22,30.80
2014,07,13,13,23,30.80
2014,07,13,13,24,30.80
2014,07,13,13,25,30.80
2014,07,13,13,26,30.90
2014,07,13,13,27,30.90
2014,07,13,13,28,31.00
2014,07,13,13,29,31.00
2014,07,13,13,30,31.10
2014,07,13,13,31,31.20
2014,07,13,13,32,31.20
2014,07,13,13,33,31.30
2014,07,13,13,34,31.30
2014,07,13,13,35,31.30
2014,07,13,13,36,31.30
2014,07,13,13,37,31.30
2014,07,13,13,38,31.30
2014,07,13,13,39,31.20
2014,07,13,13,40,31.20
2014,07,13,13,41,31.20
2014,07,13,13,42,31.20
2014,07,13,13,43,31.30
2014,07,13,13,44,31.40
2014,07,13,13,45,31.50
2014,07,13,13,46,31.60
2014,07,13,13,47,31.70
2014,07,13,13,48,31.70
2014,07,13,13,49,31.80
2014,07,13,13,50,31.90
2014,07,13,13,51,32.00
2014,07,13,13,52,32.00
2014,07,13,13,53,32.10
2014,07,13,13,54,32.20
2014,07,13,13,55,32.30
2014,07,13,13,56,32.30
2014,07,13,13,57,32.30
2014,07,13,13,58,32.40
2014,07,13,13,59,32.40
2014,07,13,14,00,32.40
2014,07,13,14,01,32.40
2014,07,13,14,02,32.50
2014,07,13,14,03,32.60
2014,07,13,14,04,32.70
2014,07,13,14,05,32.70
2014,07,13,14,06,32.70
2014,07,13,14,07,32.60
2014,07,13,14,08,32.60
2014,07,13,14,09,32.60
2014,07,13,14,10,32.60
2014,07,13,14,11,32.60
2014,07,13,14,12,32.70
2014,07,13,14,13,32.70
2014,07,13,14,14,32.80
2014,07,13,14,15,32.80
2014,07,13,14,16,32.90
2014,07,13,14,17,32.90
2014,07,13,14,18,32.90
2014,07,13,14,19,33.00
2014,07,13,14,20,33.10
2014,07,13,14,21,33.20
2014,07,13,14,22,33.20
2014,07,13,14,23,33.30
2014,07,13,14,24,33.40
2014,07,13,14,25,33.50
2014,07,13,14,26,33.60
2014,07,13,14,27,33.50
2014,07,13,14,28,33.60
2014,07,13,14,29,33.60
2014,07,13,14,30,33.60
2014,07,13,14,31,33.70
2014,07,13,14,32,33.70
2014,07,13,14,33,33.80
2014,07,13,14,34,33.90
2014,07,13,14,35,33.90
2014,07,13,14,36,34.00
2014,07,13,14,37,34.10
2014,07,13,14,38,34.10
2014,07,13,14,39,34.20
2014,07,13,14,40,34.20
2014,07,13,14,41,34.30
2014,07,13,14,42,34.30
2014,07,13,14,43,34.40
2014,07,13,14,44,34.40
2014,07,13,14,45,34.50
2014,07,13,14,46,34.60
2014,07,13,14,47,34.60
2014,07,13,14,48,34.70
2014,07,13,14,49,34.70
2014,07,13,14,50,34.80
2014,07,13,14,51,34.80
2014,07,13,14,52,34.90
2014,07,13,14,53,34.90
2014,07,13,14,54,35.00
2014,07,13,14,55,35.10
2014,07,13,14,56,35.10
2014,07,13,14,57,35.10
2014,07,13,14,58,35.10
2014,07,13,14,59,35.10
2014,07,13,15,00,35.20
2014,07,13,15,01,35.20
2014,07,13,15,02,35.20
2014,07,13,15,03,35.30
2014,07,13,15,04,35.30
2014,07,13,15,05,35.30
2014,07,13,15,06,35.30
2014,07,13,15,07,35.30
2014,07,13,15,08,35.30
2014,07,13,15,09,35.40
2014,07,13,15,10,35.40
2014,07,13,15,11,35.40
2014,07,13,15,12,35.50
2014,07,13,15,13,35.60
2014,07,13,15,14,35.60
2014,07,13,15,15,35.70
2014,07,13,15,16,35.70
2014,07,13,15,17,35.80
2014,07,13,15,18,35.80
2014,07,13,15,19,35.80
2014,07,13,15,20,35.80
2014,07,13,15,21,35.80
2014,07,13,15,22,35.80
2014,07,13,15,23,35.80
2014,07,13,15,24,35.80
2014,07,13,15,25,35.80
2014,07,13,15,26,35.80
2014,07,13,15,27,35.80
2014,07,13,15,28,35.80
2014,07,13,15,29,35.80
2014,07,13,15,30,35.70
2014,07,13,15,31,35.60
2014,07,13,15,32,35.60
2014,07,13,15,33,35.60
2014,07,13,15,34,35.50
2014,07,13,15,35,35.50
2014,07,13,15,36,35.40
2014,07,13,15,37,35.30
2014,07,13,15,38,35.20
2014,07,13,15,39,35.20
2014,07,13,15,40,35.20
2014,07,13,15,41,35.20
2014,07,13,15,42,35.10
2014,07,13,15,43,35.20
2014,07,13,15,44,35.20
2014,07,13,15,45,35.30
2014,07,13,15,46,35.30
2014,07,13,15,47,35.40
2014,07,13,15,48,35.30
2014,07,13,15,49,35.30
2014,07,13,15,50,35.20
2014,07,13,15,51,35.20
2014,07,13,15,52,35.10
2014,07,13,15,53,35.00
2014,07,13,15,54,35.00
2014,07,13,15,55,35.00
2014,07,13,15,56,34.90
2014,07,13,15,57,34.90
2014,07,13,15,58,34.90
2014,07,13,15,59,34.90
2014,07,13,16,00,34.90
2014,07,13,16,01,34.90
2014,07,13,16,02,35.00
2014,07,13,16,03,35.10
2014,07,13,16,04,35.10
2014,07,13,16,05,35.20
2014,07,13,16,06,35.20
2014,07,13,16,07,35.30
2014,07,13,16,08,35.30
2014,07,13,16,09,35.40
2014,07,13,16,10,35.40
2014,07,13,16,11,35.40
2014,07,13,16,12,35.50
2014,07,13,16,13,35.50
2014,07,13,16,14,35.50
2014,07,13,16,15,35.50
2014,07,13,16,16,35.50
2014,07,13,16,17,35.50
2014,07,13,16,18,35.40
2014,07,13,16,19,35.40
2014,07,13,16,20,35.40
2014,07,13,16,21,35.40
2014,07,13,16,22,35.30
2014,07,13,16,23,35.20
2014,07,13,16,24,35.10
2014,07,13,16,25,34.90
2014,07,13,16,26,34.80
2014,07,13,16,27,34.60
2014,07,13,16,28,34.50
2014,07,13,16,29,34.50
2014,07,13,16,30,34.40
2014,07,13,16,31,34.40
2014,07,13,16,32,34.40
2014,07,13,16,33,34.40
2014,07,13,16,34,34.30
2014,07,13,16,35,34.30
2014,07,13,16,36,34.30
2014,07,13,16,37,34.30
2014,07,13,16,38,34.30
2014,07,13,16,39,34.30
2014,07,13,16,40,34.30
2014,07,13,16,41,34.30
2014,07,13,16,42,34.20
2014,07,13,16,43,34.20
2014,07,13,16,44,34.30
2014,07,13,16,45,34.30
2014,07,13,16,46,34.30
2014,07,13,16,47,34.30
2014,07,13,16,48,34.30
2014,07,13,16,49,34.30
2014,07,13,16,50,34.30
2014,07,13,16,51,34.20
2014,07,13,16,52,34.20
2014,07,13,16,53,34.10
2014,07,13,16,54,34.00
2014,07,13,16,55,34.00
2014,07,13,16,56,33.90
2014,07,13,16,57,33.90
2014,07,13,16,58,33.80
2014,07,13,16,59,33.80
2014,07,13,17,00,33.80
2014,07,13,17,01,33.80
2014,07,13,17,02,33.70
2014,07,13,17,03,33.70
2014,07,13,17,04,33.70
2014,07,13,17,05,33.70
2014,07,13,17,06,33.70
2014,07,13,17,07,33.60
2014,07,13,17,08,33.40
2014,07,13,17,09,33.30
2014,07,13,17,10,33.30
2014,07,13,17,11,33.30
2014,07,13,17,12,33.30
2014,07,13,17,13,33.30
2014,07,13,17,14,33.40
2014,07,13,17,15,33.50
2014,07,13,17,16,33.50
2014,07,13,17,17,33.60
2014,07,13,17,18,33.70
2014,07,13,17,19,33.70